TimeEST,TemperatureF,Dew PointF,Humidity,Sea Level PressureIn,VisibilityMPH,Wind Direction,Wind SpeedMPH,Gust SpeedMPH,PrecipitationIn,Events,Conditions,WindDirDegrees,DateUTC
12:53 AM,45.0,25.0,46,29.79,10.0,South,21.9,38.0,N/A,,Overcast,190,2013-02-19 05:53:00
1:53 AM,46.0,25.0,44,29.78,10.0,South,19.6,31.1,N/A,,Partly Cloudy,190,2013-02-19 06:53:00
2:53 AM,46.0,25.0,44,29.75,10.0,South,16.1,26.5,N/A,,Overcast,180,2013-02-19 07:53:00
3:53 AM,45.0,24.1,44,29.73,10.0,SSW,11.5,19.6,N/A,,Overcast,200,2013-02-19 08:53:00
4:53 AM,44.1,26.1,49,29.71,10.0,South,10.4,-,0.00,Rain,Light Rain,190,2013-02-19 09:53:00
5:53 AM,39.9,35.1,83,29.66,4.0,SSE,26.5,39.1,0.12,Rain,Rain,160,2013-02-19 10:53:00
6:53 AM,39.9,35.1,83,29.63,5.0,South,24.2,32.2,0.06,Rain,Rain,180,2013-02-19 11:53:00
7:53 AM,39.0,34.0,82,29.62,5.0,South,26.5,35.7,0.08,Rain,Light Rain,170,2013-02-19 12:53:00
8:53 AM,39.9,35.1,83,29.61,7.0,South,18.4,31.1,0.01,Rain,Light Rain,180,2013-02-19 13:53:00
9:53 AM,39.9,35.1,83,29.59,10.0,South,17.3,26.5,0.00,Rain,Light Rain,180,2013-02-19 14:53:00
10:53 AM,36.0,33.1,89,29.62,5.0,WSW,17.3,43.7,0.00,Snow,Light Snow,250,2013-02-19 15:53:00
10:57 AM,35.6,33.8,93,29.61,3.0,WSW,15.0,36.8,0.01,Snow,Light Snow,250,2013-02-19 15:57:00
11:03 AM,33.8,32.0,93,29.61,1.8,WSW,18.4,26.5,0.01,Snow,Light Snow,240,2013-02-19 16:03:00
11:14 AM,33.8,30.2,87,29.61,0.8,WSW,16.1,26.5,0.01,Snow,Light Snow,240,2013-02-19 16:14:00
11:53 AM,33.1,30.9,92,29.63,1.0,WSW,15.0,23.0,0.02,Snow,Light Snow,240,2013-02-19 16:53:00
12:07 PM,33.8,30.2,87,29.62,0.8,WSW,17.3,27.6,0.00,Snow,Light Snow,240,2013-02-19 17:07:00
1:02 PM,30.2,28.4,93,29.63,1.2,WSW,23.0,34.5,0.00,Snow,Light Snow,250,2013-02-19 18:02:00
1:14 PM,30.2,26.6,86,29.63,2.0,WSW,18.4,29.9,0.00,Snow,Light Snow,240,2013-02-19 18:14:00
1:22 PM,30.2,26.6,86,29.63,7.0,WSW,19.6,29.9,0.00,,Overcast,250,2013-02-19 18:22:00
2:53 PM,28.9,23.0,78,29.68,10.0,WSW,24.2,41.4,0.00,,Overcast,240,2013-02-19 19:53:00
3:53 PM,30.0,21.9,72,29.70,10.0,WSW,16.1,36.8,0.00,,Overcast,240,2013-02-19 20:53:00
4:03 PM,30.2,23.0,75,29.68,10.0,WSW,20.7,32.2,N/A,,Overcast,240,2013-02-19 21:03:00
4:22 PM,28.4,23.0,80,29.69,10.0,WSW,23.0,34.5,0.00,Snow,Light Snow,240,2013-02-19 21:22:00
4:31 PM,28.4,24.8,86,29.69,1.5,WSW,21.9,32.2,0.00,Snow,Light Snow,240,2013-02-19 21:31:00
4:40 PM,28.4,24.8,86,29.70,1.0,WSW,19.6,28.8,0.00,Snow,Light Snow,240,2013-02-19 21:40:00
4:51 PM,28.4,24.8,86,29.70,0.8,SW,17.3,29.9,0.00,Snow,Light Snow,230,2013-02-19 21:51:00
4:53 PM,28.0,24.1,85,29.72,1.0,WSW,15.0,25.3,0.00,Snow,Light Snow,240,2013-02-19 21:53:00
4:56 PM,28.4,24.8,86,29.70,1.2,WSW,17.3,28.8,0.00,Snow,Light Snow,240,2013-02-19 21:56:00
5:13 PM,28.4,24.8,86,29.71,0.8,WSW,19.6,28.8,0.00,Snow,Light Snow,240,2013-02-19 22:13:00
5:53 PM,27.0,23.0,85,29.75,0.8,West,17.3,31.1,0.00,Snow,Light Snow,260,2013-02-19 22:53:00
6:01 PM,26.6,23.0,86,29.74,1.0,WSW,23.0,34.5,0.00,Snow,Light Snow,250,2013-02-19 23:01:00
6:27 PM,26.6,21.2,80,29.75,1.2,WSW,19.6,38.0,0.00,Snow,Light Snow,240,2013-02-19 23:27:00
7:22 PM,26.6,19.4,74,29.78,3.0,WSW,19.6,34.5,0.00,Snow,Light Snow,250,2013-02-20 00:22:00
7:43 PM,24.8,19.4,80,29.78,1.8,WSW,21.9,35.7,0.00,Snow,Light Snow,240,2013-02-20 00:43:00
7:51 PM,24.8,17.6,74,29.79,2.0,WSW,29.9,42.6,0.00,Snow,Light Snow,240,2013-02-20 00:51:00
7:53 PM,25.0,18.0,75,29.81,2.0,WSW,23.0,42.6,0.00,Snow,Light Snow,240,2013-02-20 00:53:00
8:22 PM,24.8,17.6,74,29.79,4.0,WSW,18.4,39.1,0.00,Snow,Light Snow,240,2013-02-20 01:22:00
8:29 PM,24.8,17.6,74,29.79,2.5,WSW,24.2,35.7,0.00,Snow,Light Snow,250,2013-02-20 01:29:00
8:47 PM,24.8,19.4,80,29.79,1.0,WSW,23.0,38.0,0.00,Snow,Light Snow,240,2013-02-20 01:47:00
8:51 PM,24.8,19.4,80,29.79,0.5,WSW,21.9,38.0,0.00,Fog-Snow,Snow,250,2013-02-20 01:51:00
8:53 PM,24.1,21.0,88,29.82,0.5,WSW,16.1,38.0,0.00,Fog-Snow,Snow,250,2013-02-20 01:53:00
9:05 PM,24.8,19.4,80,29.80,1.0,WSW,23.0,34.5,0.00,Snow,Light Snow,250,2013-02-20 02:05:00
9:17 PM,24.8,15.8,69,29.80,5.0,WSW,23.0,41.4,0.00,Snow,Light Snow,250,2013-02-20 02:17:00
9:27 PM,24.8,15.8,69,29.80,4.0,WSW,20.7,35.7,0.00,Snow,Light Snow,240,2013-02-20 02:27:00
9:41 PM,24.8,17.6,74,29.81,1.8,WSW,18.4,34.5,0.00,Snow,Light Snow,240,2013-02-20 02:41:00
9:53 PM,24.1,18.0,77,29.83,3.0,WSW,16.1,32.2,0.00,Snow,Light Snow,250,2013-02-20 02:53:00
10:04 PM,23.0,19.4,86,29.80,1.8,WSW,19.6,33.4,0.00,Snow,Light Snow,240,2013-02-20 03:04:00
10:10 PM,23.0,19.4,86,29.81,0.8,WSW,23.0,31.1,0.00,Snow,Light Snow,250,2013-02-20 03:10:00
10:19 PM,24.8,17.6,74,29.81,1.2,WSW,24.2,32.2,0.00,Snow,Light Snow,240,2013-02-20 03:19:00
10:38 PM,24.8,15.8,69,29.81,3.0,WSW,17.3,32.2,0.00,Snow,Light Snow,250,2013-02-20 03:38:00
10:45 PM,24.8,15.8,69,29.81,3.0,WSW,23.0,35.7,0.00,Snow,Light Snow,240,2013-02-20 03:45:00
10:53 PM,23.0,15.1,72,29.83,2.5,WSW,23.0,36.8,0.00,Snow,Light Snow,250,2013-02-20 03:53:00
11:25 PM,24.8,15.8,69,29.81,7.0,WSW,20.7,35.7,0.00,,Overcast,250,2013-02-20 04:25:00
11:44 PM,23.0,17.6,80,29.81,2.5,WSW,19.6,29.9,0.00,Snow,Light Snow,250,2013-02-20 04:44:00
11:53 PM,23.0,17.1,78,29.83,1.5,WSW,21.9,31.1,0.00,Snow,Light Snow,250,2013-02-20 04:53:00